{"data":{"norad_id":67330,"intl_designator":"2026-002AB","name":"STARLINK-36483","alt_names":[],"object_type":"PAYLOAD","status":"ACTIVE","operator":null,"country":"US","launch_date":"2026-01-04","launch_site_code":"AFETR","launch_vehicle":null,"mission":null,"orbit_class":"UNKNOWN","rcs_meters":null,"size_class":null,"mass_kg":null,"dimensions":null,"purposes":["comms"],"wikipedia_slug":null,"has_3d_model":false,"image_url":null,"decayed_at":null,"tle_current":{"epoch":"2026-09-19T14:40:50.124000Z","epoch_age_seconds":152159,"freshness":"FRESH","line1":"1 67330U 26002AB  26262.61169125  .00008537  00000+0  31927-3 0  9995","line2":"2 67330  42.9970 310.3640 0002054 286.0726  73.9899 15.27590387 40894","mean_motion":15.27590387,"eccentricity":0.0002054,"inclination_deg":42.997,"raan_deg":310.364,"arg_perigee_deg":286.0726,"mean_anomaly_deg":73.9899,"bstar":0.00031927,"rev_number":4089,"period_min":94.266107737689,"perigee_km":481.60871256546,"apogee_km":484.42727503691,"semimajor_km":6861.1549938012,"source":"CELESTRAK","updated_at":"2026-09-20T09:00:43.509104Z"}}}